Location: Miramichi City (Newcastle)
(46.9830°N, 65.5670°W)
Time: 02:15:28
(UTC-03:00)

Iridium 12 - Visible Passes

Search period start: 25 July 2014 00:00
Search period end: 04 August 2014 00:00
Orbit: 776 x 779 km, 86.4° (Epoch: 24 July)

Date Brightness Start Highest point End Pass type
(mag) Time Alt. Az. Time Alt. Az. Time Alt. Az.
25 Jul 6.9 22:17:24 10° NNW 22:22:13 39° W 22:27:01 10° SSW visible
26 Jul 5.9 21:43:38 10° N 21:48:49 69° W 21:53:59 10° S visible
27 Jul 8.1 22:52:12 10° NW 22:55:24 17° WNW 22:58:37 10° WSW visible
28 Jul 7.5 22:17:48 10° NNW 22:22:12 28° W 22:26:35 10° SW visible
29 Jul 6.6 21:43:51 10° NNW 21:48:52 49° W 21:53:51 10° SSW visible
30 Jul 8.4 22:53:27 10° NW 22:55:16 12° WNW 22:57:05 10° W visible
31 Jul 8.1 22:18:21 10° NNW 22:22:08 21° WNW 22:25:54 10° SW visible
01 Aug 7.2 21:44:11 10° NNW 21:48:53 35° W 21:53:33 10° SSW visible
03 Aug 8.3 22:19:11 10° NW 22:22:01 15° WNW 22:24:51 10° WSW visible
